Index of /20260508/WXO-DD/model_rdps/10km/06/011
Name Last modified Size Description
Parent Directory -
20260508T06Z_MSC_RDPS_AbsoluteVorticity_IsbL-0250_RLatLon0.09_PT011H.grib2 2026-05-08 08:41 594K
20260508T06Z_MSC_RDPS_AbsoluteVorticity_IsbL-0500_RLatLon0.09_PT011H.grib2 2026-05-08 08:41 555K
20260508T06Z_MSC_RDPS_AbsoluteVorticity_IsbL-0700_RLatLon0.09_PT011H.grib2 2026-05-08 08:41 623K
20260508T06Z_MSC_RDPS_AbsoluteVorticity_IsbL-0850_RLatLon0.09_PT011H.grib2 2026-05-08 08:41 945K
20260508T06Z_MSC_RDPS_AirTemp_AGL-120m_RLatLon0.09_PT011H.grib2 2026-05-08 08:41 383K
20260508T06Z_MSC_RDPS_AirTemp_AGL-2m_RLatLon0.09_PT011H.grib2 2026-05-08 08:41 627K
20260508T06Z_MSC_RDPS_AirTemp_AGL-40m_RLatLon0.09_PT011H.grib2 2026-05-08 08:41 393K
20260508T06Z_MSC_RDPS_AirTemp_AGL-80m_RLatLon0.09_PT011H.grib2 2026-05-08 08:41 387K
20260508T06Z_MSC_RDPS_AirTemp_IsbL-0001_RLatLon0.09_PT011H.grib2 2026-05-08 08:41 322K
20260508T06Z_MSC_RDPS_AirTemp_IsbL-0005_RLatLon0.09_PT011H.grib2 2026-05-08 08:41 365K
20260508T06Z_MSC_RDPS_AirTemp_IsbL-0010_RLatLon0.09_PT011H.grib2 2026-05-08 08:41 381K
20260508T06Z_MSC_RDPS_AirTemp_IsbL-0020_RLatLon0.09_PT011H.grib2 2026-05-08 08:41 306K
20260508T06Z_MSC_RDPS_AirTemp_IsbL-0030_RLatLon0.09_PT011H.grib2 2026-05-08 08:41 330K
20260508T06Z_MSC_RDPS_AirTemp_IsbL-0050_RLatLon0.09_PT011H.grib2 2026-05-08 08:41 306K
20260508T06Z_MSC_RDPS_AirTemp_IsbL-0100_RLatLon0.09_PT011H.grib2 2026-05-08 08:41 380K
20260508T06Z_MSC_RDPS_AirTemp_IsbL-0150_RLatLon0.09_PT011H.grib2 2026-05-08 08:41 403K
20260508T06Z_MSC_RDPS_AirTemp_IsbL-0175_RLatLon0.09_PT011H.grib2 2026-05-08 08:41 396K
20260508T06Z_MSC_RDPS_AirTemp_IsbL-0200_RLatLon0.09_PT011H.grib2 2026-05-08 08:41 403K
20260508T06Z_MSC_RDPS_AirTemp_IsbL-0225_RLatLon0.09_PT011H.grib2 2026-05-08 08:41 404K
20260508T06Z_MSC_RDPS_AirTemp_IsbL-0250_RLatLon0.09_PT011H.grib2 2026-05-08 08:41 410K
20260508T06Z_MSC_RDPS_AirTemp_IsbL-0275_RLatLon0.09_PT011H.grib2 2026-05-08 08:41 392K
20260508T06Z_MSC_RDPS_AirTemp_IsbL-0300_RLatLon0.09_PT011H.grib2 2026-05-08 08:41 424K
20260508T06Z_MSC_RDPS_AirTemp_IsbL-0350_RLatLon0.09_PT011H.grib2 2026-05-08 08:41 413K
20260508T06Z_MSC_RDPS_AirTemp_IsbL-0400_RLatLon0.09_PT011H.grib2 2026-05-08 08:41 415K
20260508T06Z_MSC_RDPS_AirTemp_IsbL-0450_RLatLon0.09_PT011H.grib2 2026-05-08 08:41 425K
20260508T06Z_MSC_RDPS_AirTemp_IsbL-0500_RLatLon0.09_PT011H.grib2 2026-05-08 08:41 438K
20260508T06Z_MSC_RDPS_AirTemp_IsbL-0550_RLatLon0.09_PT011H.grib2 2026-05-08 08:41 422K
20260508T06Z_MSC_RDPS_AirTemp_IsbL-0600_RLatLon0.09_PT011H.grib2 2026-05-08 08:41 441K
20260508T06Z_MSC_RDPS_AirTemp_IsbL-0650_RLatLon0.09_PT011H.grib2 2026-05-08 08:41 458K
20260508T06Z_MSC_RDPS_AirTemp_IsbL-0700_RLatLon0.09_PT011H.grib2 2026-05-08 08:41 487K
20260508T06Z_MSC_RDPS_AirTemp_IsbL-0750_RLatLon0.09_PT011H.grib2 2026-05-08 08:41 534K
20260508T06Z_MSC_RDPS_AirTemp_IsbL-0800_RLatLon0.09_PT011H.grib2 2026-05-08 08:41 588K
20260508T06Z_MSC_RDPS_AirTemp_IsbL-0850_RLatLon0.09_PT011H.grib2 2026-05-08 08:41 644K
20260508T06Z_MSC_RDPS_AirTemp_IsbL-0875_RLatLon0.09_PT011H.grib2 2026-05-08 08:41 665K
20260508T06Z_MSC_RDPS_AirTemp_IsbL-0900_RLatLon0.09_PT011H.grib2 2026-05-08 08:41 541K
20260508T06Z_MSC_RDPS_AirTemp_IsbL-0925_RLatLon0.09_PT011H.grib2 2026-05-08 08:41 541K
20260508T06Z_MSC_RDPS_AirTemp_IsbL-0950_RLatLon0.09_PT011H.grib2 2026-05-08 08:41 543K
20260508T06Z_MSC_RDPS_AirTemp_IsbL-0970_RLatLon0.09_PT011H.grib2 2026-05-08 08:41 537K
20260508T06Z_MSC_RDPS_AirTemp_IsbL-0985_RLatLon0.09_PT011H.grib2 2026-05-08 08:41 524K
20260508T06Z_MSC_RDPS_AirTemp_IsbL-1000_RLatLon0.09_PT011H.grib2 2026-05-08 08:41 511K
20260508T06Z_MSC_RDPS_AirTemp_IsbL-1015_RLatLon0.09_PT011H.grib2 2026-05-08 08:41 509K
20260508T06Z_MSC_RDPS_Albedo_Sfc_RLatLon0.09_PT011H.grib2 2026-05-08 08:41 156K
20260508T06Z_MSC_RDPS_CAPE_Sfc_RLatLon0.09_PT011H.grib2 2026-05-08 08:41 1.8M
20260508T06Z_MSC_RDPS_CIN_Sfc_RLatLon0.09_PT011H.grib2 2026-05-08 08:41 1.3M
20260508T06Z_MSC_RDPS_CloudWater_EAtm_RLatLon0.09_PT011H.grib2 2026-05-08 08:41 226K
20260508T06Z_MSC_RDPS_ConvectivePrecip-Accum_Sfc_RLatLon0.09_PT011H.grib2 2026-05-08 08:41 616K
20260508T06Z_MSC_RDPS_DewPointDepression_AGL-2m_RLatLon0.09_PT011H.grib2 2026-05-08 08:41 433K
20260508T06Z_MSC_RDPS_DewPointDepression_IsbL-0001_RLatLon0.09_PT011H.grib2 2026-05-08 08:41 193
20260508T06Z_MSC_RDPS_DewPointDepression_IsbL-0005_RLatLon0.09_PT011H.grib2 2026-05-08 08:41 193
20260508T06Z_MSC_RDPS_DewPointDepression_IsbL-0010_RLatLon0.09_PT011H.grib2 2026-05-08 08:41 193
20260508T06Z_MSC_RDPS_DewPointDepression_IsbL-0020_RLatLon0.09_PT011H.grib2 2026-05-08 08:41 193
20260508T06Z_MSC_RDPS_DewPointDepression_IsbL-0030_RLatLon0.09_PT011H.grib2 2026-05-08 08:41 193
20260508T06Z_MSC_RDPS_DewPointDepression_IsbL-0050_RLatLon0.09_PT011H.grib2 2026-05-08 08:41 113K
20260508T06Z_MSC_RDPS_DewPointDepression_IsbL-0100_RLatLon0.09_PT011H.grib2 2026-05-08 08:41 108K
20260508T06Z_MSC_RDPS_DewPointDepression_IsbL-0150_RLatLon0.09_PT011H.grib2 2026-05-08 08:41 139K
20260508T06Z_MSC_RDPS_DewPointDepression_IsbL-0175_RLatLon0.09_PT011H.grib2 2026-05-08 08:41 171K
20260508T06Z_MSC_RDPS_DewPointDepression_IsbL-0200_RLatLon0.09_PT011H.grib2 2026-05-08 08:41 216K
20260508T06Z_MSC_RDPS_DewPointDepression_IsbL-0225_RLatLon0.09_PT011H.grib2 2026-05-08 08:41 249K
20260508T06Z_MSC_RDPS_DewPointDepression_IsbL-0250_RLatLon0.09_PT011H.grib2 2026-05-08 08:41 295K
20260508T06Z_MSC_RDPS_DewPointDepression_IsbL-0275_RLatLon0.09_PT011H.grib2 2026-05-08 08:41 306K
20260508T06Z_MSC_RDPS_DewPointDepression_IsbL-0300_RLatLon0.09_PT011H.grib2 2026-05-08 08:41 319K
20260508T06Z_MSC_RDPS_DewPointDepression_IsbL-0350_RLatLon0.09_PT011H.grib2 2026-05-08 08:41 318K
20260508T06Z_MSC_RDPS_DewPointDepression_IsbL-0400_RLatLon0.09_PT011H.grib2 2026-05-08 08:41 323K
20260508T06Z_MSC_RDPS_DewPointDepression_IsbL-0450_RLatLon0.09_PT011H.grib2 2026-05-08 08:41 328K
20260508T06Z_MSC_RDPS_DewPointDepression_IsbL-0500_RLatLon0.09_PT011H.grib2 2026-05-08 08:41 333K
20260508T06Z_MSC_RDPS_DewPointDepression_IsbL-0550_RLatLon0.09_PT011H.grib2 2026-05-08 08:41 346K
20260508T06Z_MSC_RDPS_DewPointDepression_IsbL-0600_RLatLon0.09_PT011H.grib2 2026-05-08 08:41 365K
20260508T06Z_MSC_RDPS_DewPointDepression_IsbL-0650_RLatLon0.09_PT011H.grib2 2026-05-08 08:41 376K
20260508T06Z_MSC_RDPS_DewPointDepression_IsbL-0700_RLatLon0.09_PT011H.grib2 2026-05-08 08:41 392K
20260508T06Z_MSC_RDPS_DewPointDepression_IsbL-0750_RLatLon0.09_PT011H.grib2 2026-05-08 08:41 418K
20260508T06Z_MSC_RDPS_DewPointDepression_IsbL-0800_RLatLon0.09_PT011H.grib2 2026-05-08 08:41 464K
20260508T06Z_MSC_RDPS_DewPointDepression_IsbL-0850_RLatLon0.09_PT011H.grib2 2026-05-08 08:41 495K
20260508T06Z_MSC_RDPS_DewPointDepression_IsbL-0875_RLatLon0.09_PT011H.grib2 2026-05-08 08:41 491K
20260508T06Z_MSC_RDPS_DewPointDepression_IsbL-0900_RLatLon0.09_PT011H.grib2 2026-05-08 08:41 478K
20260508T06Z_MSC_RDPS_DewPointDepression_IsbL-0925_RLatLon0.09_PT011H.grib2 2026-05-08 08:41 463K
20260508T06Z_MSC_RDPS_DewPointDepression_IsbL-0950_RLatLon0.09_PT011H.grib2 2026-05-08 08:41 456K
20260508T06Z_MSC_RDPS_DewPointDepression_IsbL-0970_RLatLon0.09_PT011H.grib2 2026-05-08 08:41 451K
20260508T06Z_MSC_RDPS_DewPointDepression_IsbL-0985_RLatLon0.09_PT011H.grib2 2026-05-08 08:41 447K
20260508T06Z_MSC_RDPS_DewPointDepression_IsbL-1000_RLatLon0.09_PT011H.grib2 2026-05-08 08:41 443K
20260508T06Z_MSC_RDPS_DewPointDepression_IsbL-1015_RLatLon0.09_PT011H.grib2 2026-05-08 08:41 434K
20260508T06Z_MSC_RDPS_DewPoint_AGL-2m_RLatLon0.09_PT011H.grib2 2026-05-08 08:41 410K
20260508T06Z_MSC_RDPS_DownwardLongwaveRadiationFlux-Accum_Sfc_RLatLon0.09_PT011H.grib2 2026-05-08 08:41 464K
20260508T06Z_MSC_RDPS_DownwardShortwaveRadiationFlux-Accum_NTAtm_RLatLon0.09_PT011H.grib2 2026-05-08 08:41 114K
20260508T06Z_MSC_RDPS_DownwardShortwaveRadiationFlux-Accum_Sfc_RLatLon0.09_PT011H.grib2 2026-05-08 08:41 476K
20260508T06Z_MSC_RDPS_FreezingRain-Accum1h_Sfc_RLatLon0.09_PT011H.grib2 2026-05-08 08:41 27K
20260508T06Z_MSC_RDPS_FreezingRain-Accum_Sfc_RLatLon0.09_PT011H.grib2 2026-05-08 08:41 91K
20260508T06Z_MSC_RDPS_GeopotentialHeight_IsbL-0001_RLatLon0.09_PT011H.grib2 2026-05-08 08:41 274K
20260508T06Z_MSC_RDPS_GeopotentialHeight_IsbL-0005_RLatLon0.09_PT011H.grib2 2026-05-08 08:41 336K
20260508T06Z_MSC_RDPS_GeopotentialHeight_IsbL-0010_RLatLon0.09_PT011H.grib2 2026-05-08 08:41 305K
20260508T06Z_MSC_RDPS_GeopotentialHeight_IsbL-0020_RLatLon0.09_PT011H.grib2 2026-05-08 08:41 304K
20260508T06Z_MSC_RDPS_GeopotentialHeight_IsbL-0030_RLatLon0.09_PT011H.grib2 2026-05-08 08:41 306K
20260508T06Z_MSC_RDPS_GeopotentialHeight_IsbL-0050_RLatLon0.09_PT011H.grib2 2026-05-08 08:41 307K
20260508T06Z_MSC_RDPS_GeopotentialHeight_IsbL-0100_RLatLon0.09_PT011H.grib2 2026-05-08 08:41 283K
20260508T06Z_MSC_RDPS_GeopotentialHeight_IsbL-0150_RLatLon0.09_PT011H.grib2 2026-05-08 08:41 224K
20260508T06Z_MSC_RDPS_GeopotentialHeight_IsbL-0175_RLatLon0.09_PT011H.grib2 2026-05-08 08:41 258K
20260508T06Z_MSC_RDPS_GeopotentialHeight_IsbL-0200_RLatLon0.09_PT011H.grib2 2026-05-08 08:41 260K
20260508T06Z_MSC_RDPS_GeopotentialHeight_IsbL-0225_RLatLon0.09_PT011H.grib2 2026-05-08 08:41 262K
20260508T06Z_MSC_RDPS_GeopotentialHeight_IsbL-0250_RLatLon0.09_PT011H.grib2 2026-05-08 08:41 263K
20260508T06Z_MSC_RDPS_GeopotentialHeight_IsbL-0275_RLatLon0.09_PT011H.grib2 2026-05-08 08:41 263K
20260508T06Z_MSC_RDPS_GeopotentialHeight_IsbL-0300_RLatLon0.09_PT011H.grib2 2026-05-08 08:41 262K
20260508T06Z_MSC_RDPS_GeopotentialHeight_IsbL-0350_RLatLon0.09_PT011H.grib2 2026-05-08 08:41 228K
20260508T06Z_MSC_RDPS_GeopotentialHeight_IsbL-0400_RLatLon0.09_PT011H.grib2 2026-05-08 08:41 225K
20260508T06Z_MSC_RDPS_GeopotentialHeight_IsbL-0450_RLatLon0.09_PT011H.grib2 2026-05-08 08:41 292K
20260508T06Z_MSC_RDPS_GeopotentialHeight_IsbL-0500_RLatLon0.09_PT011H.grib2 2026-05-08 08:41 287K
20260508T06Z_MSC_RDPS_GeopotentialHeight_IsbL-0550_RLatLon0.09_PT011H.grib2 2026-05-08 08:41 284K
20260508T06Z_MSC_RDPS_GeopotentialHeight_IsbL-0600_RLatLon0.09_PT011H.grib2 2026-05-08 08:41 283K
20260508T06Z_MSC_RDPS_GeopotentialHeight_IsbL-0650_RLatLon0.09_PT011H.grib2 2026-05-08 08:41 254K
20260508T06Z_MSC_RDPS_GeopotentialHeight_IsbL-0700_RLatLon0.09_PT011H.grib2 2026-05-08 08:41 255K
20260508T06Z_MSC_RDPS_GeopotentialHeight_IsbL-0750_RLatLon0.09_PT011H.grib2 2026-05-08 08:41 342K
20260508T06Z_MSC_RDPS_GeopotentialHeight_IsbL-0800_RLatLon0.09_PT011H.grib2 2026-05-08 08:41 351K
20260508T06Z_MSC_RDPS_GeopotentialHeight_IsbL-0850_RLatLon0.09_PT011H.grib2 2026-05-08 08:41 360K
20260508T06Z_MSC_RDPS_GeopotentialHeight_IsbL-0875_RLatLon0.09_PT011H.grib2 2026-05-08 08:41 363K
20260508T06Z_MSC_RDPS_GeopotentialHeight_IsbL-0900_RLatLon0.09_PT011H.grib2 2026-05-08 08:41 366K
20260508T06Z_MSC_RDPS_GeopotentialHeight_IsbL-0925_RLatLon0.09_PT011H.grib2 2026-05-08 08:41 369K
20260508T06Z_MSC_RDPS_GeopotentialHeight_IsbL-0950_RLatLon0.09_PT011H.grib2 2026-05-08 08:41 371K
20260508T06Z_MSC_RDPS_GeopotentialHeight_IsbL-0970_RLatLon0.09_PT011H.grib2 2026-05-08 08:41 380K
20260508T06Z_MSC_RDPS_GeopotentialHeight_IsbL-0985_RLatLon0.09_PT011H.grib2 2026-05-08 08:41 391K
20260508T06Z_MSC_RDPS_GeopotentialHeight_IsbL-1000_RLatLon0.09_PT011H.grib2 2026-05-08 08:41 404K
20260508T06Z_MSC_RDPS_GeopotentialHeight_IsbL-1015_RLatLon0.09_PT011H.grib2 2026-05-08 08:41 420K
20260508T06Z_MSC_RDPS_HighLowPressure_MSL_RLatLon0.09_PT011H.json 2026-05-08 08:34 23K
20260508T06Z_MSC_RDPS_Humidex_Sfc_RLatLon0.09_PT011H.grib2 2026-05-08 08:41 2.4M
20260508T06Z_MSC_RDPS_IcePellets-Accum1h_Sfc_RLatLon0.09_PT011H.grib2 2026-05-08 08:41 8.1K
20260508T06Z_MSC_RDPS_IcePellets-Accum_Sfc_RLatLon0.09_PT011H.grib2 2026-05-08 08:41 10K
20260508T06Z_MSC_RDPS_KIndex_Sfc_RLatLon0.09_PT011H.grib2 2026-05-08 08:41 2.5M
20260508T06Z_MSC_RDPS_LatentHeatNetFlux_Sfc_RLatLon0.09_PT011H.grib2 2026-05-08 08:41 409K
20260508T06Z_MSC_RDPS_LiftedIndex-MU-VT_IsbL-0500_RLatLon0.09_PT011H.grib2 2026-05-08 08:41 2.4M
20260508T06Z_MSC_RDPS_NetLongwaveRadiationFlux-Accum_Sfc_RLatLon0.09_PT011H.grib2 2026-05-08 08:41 605K
20260508T06Z_MSC_RDPS_NetShortwaveRadiationFlux-Accum_Sfc_RLatLon0.09_PT011H.grib2 2026-05-08 08:41 465K
20260508T06Z_MSC_RDPS_PlanetaryBoundaryLayerHeight_Sfc_RLatLon0.09_PT011H.grib2 2026-05-08 08:41 1.0M
20260508T06Z_MSC_RDPS_Precip-Accum1h_Sfc_RLatLon0.09_PT011H.grib2 2026-05-08 08:41 1.2M
20260508T06Z_MSC_RDPS_Precip-Accum_Sfc_RLatLon0.09_PT011H.grib2 2026-05-08 08:41 1.6M
20260508T06Z_MSC_RDPS_PrecipRate_Sfc_RLatLon0.09_PT011H.grib2 2026-05-08 08:41 162K
20260508T06Z_MSC_RDPS_PrecipType-Instant_Sfc_RLatLon0.09_PT011H.grib2 2026-05-08 08:41 574K
20260508T06Z_MSC_RDPS_Pressure-Trend3h_Sfc_RLatLon0.09_PT011H.grib2 2026-05-08 08:41 1.2M
20260508T06Z_MSC_RDPS_Pressure_MSL_RLatLon0.09_PT011H.grib2 2026-05-08 08:41 298K
20260508T06Z_MSC_RDPS_Pressure_PVU-1.5_RLatLon0.09_PT011H.grib2 2026-05-08 08:41 2.5M
20260508T06Z_MSC_RDPS_Pressure_PVU-1_RLatLon0.09_PT011H.grib2 2026-05-08 08:41 2.4M
20260508T06Z_MSC_RDPS_Pressure_PVU-2_RLatLon0.09_PT011H.grib2 2026-05-08 08:41 2.4M
20260508T06Z_MSC_RDPS_Pressure_Sfc_RLatLon0.09_PT011H.grib2 2026-05-08 08:41 500K
20260508T06Z_MSC_RDPS_RadiativeTemp_Sfc_RLatLon0.09_PT011H.grib2 2026-05-08 08:41 327K
20260508T06Z_MSC_RDPS_Rain-Accum1h_Sfc_RLatLon0.09_PT011H.grib2 2026-05-08 08:41 634K
20260508T06Z_MSC_RDPS_Rain-Accum_Sfc_RLatLon0.09_PT011H.grib2 2026-05-08 08:41 1.2M
20260508T06Z_MSC_RDPS_RelativeHumidity_AGL-2m_RLatLon0.09_PT011H.grib2 2026-05-08 08:41 1.0M
20260508T06Z_MSC_RDPS_RelativeHumidity_IsbL-0010_RLatLon0.09_PT011H.grib2 2026-05-08 08:41 594K
20260508T06Z_MSC_RDPS_RelativeHumidity_IsbL-0020_RLatLon0.09_PT011H.grib2 2026-05-08 08:41 653K
20260508T06Z_MSC_RDPS_RelativeHumidity_IsbL-0030_RLatLon0.09_PT011H.grib2 2026-05-08 08:41 633K
20260508T06Z_MSC_RDPS_RelativeHumidity_IsbL-0050_RLatLon0.09_PT011H.grib2 2026-05-08 08:41 360K
20260508T06Z_MSC_RDPS_RelativeHumidity_IsbL-0100_RLatLon0.09_PT011H.grib2 2026-05-08 08:41 274K
20260508T06Z_MSC_RDPS_RelativeHumidity_IsbL-0150_RLatLon0.09_PT011H.grib2 2026-05-08 08:41 407K
20260508T06Z_MSC_RDPS_RelativeHumidity_IsbL-0175_RLatLon0.09_PT011H.grib2 2026-05-08 08:41 467K
20260508T06Z_MSC_RDPS_RelativeHumidity_IsbL-0200_RLatLon0.09_PT011H.grib2 2026-05-08 08:41 537K
20260508T06Z_MSC_RDPS_RelativeHumidity_IsbL-0225_RLatLon0.09_PT011H.grib2 2026-05-08 08:41 601K
20260508T06Z_MSC_RDPS_RelativeHumidity_IsbL-0250_RLatLon0.09_PT011H.grib2 2026-05-08 08:41 669K
20260508T06Z_MSC_RDPS_RelativeHumidity_IsbL-0275_RLatLon0.09_PT011H.grib2 2026-05-08 08:41 696K
20260508T06Z_MSC_RDPS_RelativeHumidity_IsbL-0300_RLatLon0.09_PT011H.grib2 2026-05-08 08:41 734K
20260508T06Z_MSC_RDPS_RelativeHumidity_IsbL-0350_RLatLon0.09_PT011H.grib2 2026-05-08 08:41 747K
20260508T06Z_MSC_RDPS_RelativeHumidity_IsbL-0400_RLatLon0.09_PT011H.grib2 2026-05-08 08:41 765K
20260508T06Z_MSC_RDPS_RelativeHumidity_IsbL-0450_RLatLon0.09_PT011H.grib2 2026-05-08 08:41 773K
20260508T06Z_MSC_RDPS_RelativeHumidity_IsbL-0500_RLatLon0.09_PT011H.grib2 2026-05-08 08:41 780K
20260508T06Z_MSC_RDPS_RelativeHumidity_IsbL-0550_RLatLon0.09_PT011H.grib2 2026-05-08 08:41 802K
20260508T06Z_MSC_RDPS_RelativeHumidity_IsbL-0600_RLatLon0.09_PT011H.grib2 2026-05-08 08:41 841K
20260508T06Z_MSC_RDPS_RelativeHumidity_IsbL-0650_RLatLon0.09_PT011H.grib2 2026-05-08 08:41 861K
20260508T06Z_MSC_RDPS_RelativeHumidity_IsbL-0700_RLatLon0.09_PT011H.grib2 2026-05-08 08:41 889K
20260508T06Z_MSC_RDPS_RelativeHumidity_IsbL-0750_RLatLon0.09_PT011H.grib2 2026-05-08 08:41 942K
20260508T06Z_MSC_RDPS_RelativeHumidity_IsbL-0800_RLatLon0.09_PT011H.grib2 2026-05-08 08:41 1.0M
20260508T06Z_MSC_RDPS_RelativeHumidity_IsbL-0850_RLatLon0.09_PT011H.grib2 2026-05-08 08:41 1.1M
20260508T06Z_MSC_RDPS_RelativeHumidity_IsbL-0875_RLatLon0.09_PT011H.grib2 2026-05-08 08:41 1.1M
20260508T06Z_MSC_RDPS_RelativeHumidity_IsbL-0900_RLatLon0.09_PT011H.grib2 2026-05-08 08:41 1.1M
20260508T06Z_MSC_RDPS_RelativeHumidity_IsbL-0925_RLatLon0.09_PT011H.grib2 2026-05-08 08:41 1.1M
20260508T06Z_MSC_RDPS_RelativeHumidity_IsbL-0950_RLatLon0.09_PT011H.grib2 2026-05-08 08:41 1.1M
20260508T06Z_MSC_RDPS_RelativeHumidity_IsbL-0970_RLatLon0.09_PT011H.grib2 2026-05-08 08:41 1.1M
20260508T06Z_MSC_RDPS_RelativeHumidity_IsbL-0985_RLatLon0.09_PT011H.grib2 2026-05-08 08:41 1.0M
20260508T06Z_MSC_RDPS_RelativeHumidity_IsbL-1000_RLatLon0.09_PT011H.grib2 2026-05-08 08:41 1.0M
20260508T06Z_MSC_RDPS_RelativeHumidity_IsbL-1015_RLatLon0.09_PT011H.grib2 2026-05-08 08:41 1.0M
20260508T06Z_MSC_RDPS_Runoff-Accum_Sfc_RLatLon0.09_PT011H.grib2 2026-05-08 08:41 34K
20260508T06Z_MSC_RDPS_SWEATIndex_Sfc_RLatLon0.09_PT011H.grib2 2026-05-08 08:41 2.4M
20260508T06Z_MSC_RDPS_SeeingIndex_EAtm_RLatLon0.09_PT011H.grib2 2026-05-08 08:41 1.0M
20260508T06Z_MSC_RDPS_SensibleHeatNetFlux_Sfc_RLatLon0.09_PT011H.grib2 2026-05-08 08:41 287K
20260508T06Z_MSC_RDPS_ShowalterIndex_IsbL-0500_RLatLon0.09_PT011H.grib2 2026-05-08 08:41 2.6M
20260508T06Z_MSC_RDPS_SkyTransparencyIndex_EAtm_RLatLon0.09_PT011H.grib2 2026-05-08 08:41 704K
20260508T06Z_MSC_RDPS_Snow-Accum1h_Sfc_RLatLon0.09_PT011H.grib2 2026-05-08 08:41 411K
20260508T06Z_MSC_RDPS_Snow-Accum_Sfc_RLatLon0.09_PT011H.grib2 2026-05-08 08:41 606K
20260508T06Z_MSC_RDPS_SnowDensity_Sfc_RLatLon0.09_PT011H.grib2 2026-05-08 08:41 167K
20260508T06Z_MSC_RDPS_SnowDepth_Sfc_RLatLon0.09_PT011H.grib2 2026-05-08 08:41 625K
20260508T06Z_MSC_RDPS_SoilTemp_DBS-0to10cm_RLatLon0.09_PT011H.grib2 2026-05-08 08:41 211K
20260508T06Z_MSC_RDPS_SoilTemp_Sfc_RLatLon0.09_PT011H.grib2 2026-05-08 08:41 297K
20260508T06Z_MSC_RDPS_SoilVolumetricIceContent_Sfc_RLatLon0.09_PT011H.grib2 2026-05-08 08:41 147K
20260508T06Z_MSC_RDPS_SoilVolumetricWaterContent_DBS-0to10cm_RLatLon0.09_PT011H.grib2 2026-05-08 08:41 284K
20260508T06Z_MSC_RDPS_SoilVolumetricWaterContent_DBS-0to1cm_RLatLon0.09_PT011H.grib2 2026-05-08 08:41 336K
20260508T06Z_MSC_RDPS_SpecificHumidity_AGL-120m_RLatLon0.09_PT011H.grib2 2026-05-08 08:41 516K
20260508T06Z_MSC_RDPS_SpecificHumidity_AGL-2m_RLatLon0.09_PT011H.grib2 2026-05-08 08:41 686K
20260508T06Z_MSC_RDPS_SpecificHumidity_AGL-40m_RLatLon0.09_PT011H.grib2 2026-05-08 08:41 521K
20260508T06Z_MSC_RDPS_SpecificHumidity_AGL-80m_RLatLon0.09_PT011H.grib2 2026-05-08 08:41 518K
20260508T06Z_MSC_RDPS_SpecificHumidity_IsbL-0001_RLatLon0.09_PT011H.grib2 2026-05-08 08:41 367K
20260508T06Z_MSC_RDPS_SpecificHumidity_IsbL-0005_RLatLon0.09_PT011H.grib2 2026-05-08 08:41 372K
20260508T06Z_MSC_RDPS_SpecificHumidity_IsbL-0010_RLatLon0.09_PT011H.grib2 2026-05-08 08:41 402K
20260508T06Z_MSC_RDPS_SpecificHumidity_IsbL-0020_RLatLon0.09_PT011H.grib2 2026-05-08 08:41 380K
20260508T06Z_MSC_RDPS_SpecificHumidity_IsbL-0030_RLatLon0.09_PT011H.grib2 2026-05-08 08:41 373K
20260508T06Z_MSC_RDPS_SpecificHumidity_IsbL-0050_RLatLon0.09_PT011H.grib2 2026-05-08 08:41 454K
20260508T06Z_MSC_RDPS_SpecificHumidity_IsbL-0100_RLatLon0.09_PT011H.grib2 2026-05-08 08:41 414K
20260508T06Z_MSC_RDPS_SpecificHumidity_IsbL-0150_RLatLon0.09_PT011H.grib2 2026-05-08 08:41 449K
20260508T06Z_MSC_RDPS_SpecificHumidity_IsbL-0175_RLatLon0.09_PT011H.grib2 2026-05-08 08:41 436K
20260508T06Z_MSC_RDPS_SpecificHumidity_IsbL-0200_RLatLon0.09_PT011H.grib2 2026-05-08 08:41 467K
20260508T06Z_MSC_RDPS_SpecificHumidity_IsbL-0225_RLatLon0.09_PT011H.grib2 2026-05-08 08:41 466K
20260508T06Z_MSC_RDPS_SpecificHumidity_IsbL-0250_RLatLon0.09_PT011H.grib2 2026-05-08 08:41 543K
20260508T06Z_MSC_RDPS_SpecificHumidity_IsbL-0275_RLatLon0.09_PT011H.grib2 2026-05-08 08:41 474K
20260508T06Z_MSC_RDPS_SpecificHumidity_IsbL-0300_RLatLon0.09_PT011H.grib2 2026-05-08 08:41 443K
20260508T06Z_MSC_RDPS_SpecificHumidity_IsbL-0350_RLatLon0.09_PT011H.grib2 2026-05-08 08:41 432K
20260508T06Z_MSC_RDPS_SpecificHumidity_IsbL-0400_RLatLon0.09_PT011H.grib2 2026-05-08 08:41 511K
20260508T06Z_MSC_RDPS_SpecificHumidity_IsbL-0450_RLatLon0.09_PT011H.grib2 2026-05-08 08:41 448K
20260508T06Z_MSC_RDPS_SpecificHumidity_IsbL-0500_RLatLon0.09_PT011H.grib2 2026-05-08 08:41 497K
20260508T06Z_MSC_RDPS_SpecificHumidity_IsbL-0550_RLatLon0.09_PT011H.grib2 2026-05-08 08:41 571K
20260508T06Z_MSC_RDPS_SpecificHumidity_IsbL-0600_RLatLon0.09_PT011H.grib2 2026-05-08 08:41 629K
20260508T06Z_MSC_RDPS_SpecificHumidity_IsbL-0650_RLatLon0.09_PT011H.grib2 2026-05-08 08:41 553K
20260508T06Z_MSC_RDPS_SpecificHumidity_IsbL-0700_RLatLon0.09_PT011H.grib2 2026-05-08 08:41 603K
20260508T06Z_MSC_RDPS_SpecificHumidity_IsbL-0750_RLatLon0.09_PT011H.grib2 2026-05-08 08:41 668K
20260508T06Z_MSC_RDPS_SpecificHumidity_IsbL-0800_RLatLon0.09_PT011H.grib2 2026-05-08 08:41 765K
20260508T06Z_MSC_RDPS_SpecificHumidity_IsbL-0850_RLatLon0.09_PT011H.grib2 2026-05-08 08:41 842K
20260508T06Z_MSC_RDPS_SpecificHumidity_IsbL-0875_RLatLon0.09_PT011H.grib2 2026-05-08 08:41 863K
20260508T06Z_MSC_RDPS_SpecificHumidity_IsbL-0900_RLatLon0.09_PT011H.grib2 2026-05-08 08:41 872K
20260508T06Z_MSC_RDPS_SpecificHumidity_IsbL-0925_RLatLon0.09_PT011H.grib2 2026-05-08 08:41 731K
20260508T06Z_MSC_RDPS_SpecificHumidity_IsbL-0950_RLatLon0.09_PT011H.grib2 2026-05-08 08:41 730K
20260508T06Z_MSC_RDPS_SpecificHumidity_IsbL-0970_RLatLon0.09_PT011H.grib2 2026-05-08 08:41 724K
20260508T06Z_MSC_RDPS_SpecificHumidity_IsbL-0985_RLatLon0.09_PT011H.grib2 2026-05-08 08:41 716K
20260508T06Z_MSC_RDPS_SpecificHumidity_IsbL-1000_RLatLon0.09_PT011H.grib2 2026-05-08 08:41 711K
20260508T06Z_MSC_RDPS_SpecificHumidity_IsbL-1015_RLatLon0.09_PT011H.grib2 2026-05-08 08:41 700K
20260508T06Z_MSC_RDPS_SpecificHumidity_Sfc_RLatLon0.09_PT011H.grib2 2026-05-08 08:41 351K
20260508T06Z_MSC_RDPS_StormRelativeHelicity_EtaL-10000_RLatLon0.09_PT011H.grib2 2026-05-08 08:41 1.1M
20260508T06Z_MSC_RDPS_StormSeverityIndex_EtaL-10000_RLatLon0.09_PT011H.grib2 2026-05-08 08:41 1.2M
20260508T06Z_MSC_RDPS_Thickness_IsbL-0850to0700_RLatLon0.09_PT011H.grib2 2026-05-08 08:41 177K
20260508T06Z_MSC_RDPS_Thickness_IsbL-1000to0500_RLatLon0.09_PT011H.grib2 2026-05-08 08:41 198K
20260508T06Z_MSC_RDPS_Thickness_IsbL-1000to0850_RLatLon0.09_PT011H.grib2 2026-05-08 08:41 269K
20260508T06Z_MSC_RDPS_TotalCloudCover_Sfc_RLatLon0.09_PT011H.grib2 2026-05-08 08:41 658K
20260508T06Z_MSC_RDPS_TotalTotalsIndex_Sfc_RLatLon0.09_PT011H.grib2 2026-05-08 08:41 2.4M
20260508T06Z_MSC_RDPS_UVIndex-ClearSky_Sfc_RLatLon0.09_PT011H.grib2 2026-05-08 08:41 226K
20260508T06Z_MSC_RDPS_UVIndex_Sfc_RLatLon0.09_PT011H.grib2 2026-05-08 08:41 532K
20260508T06Z_MSC_RDPS_UpwardLongwaveRadiationFlux_NTAtm_RLatLon0.09_PT011H.grib2 2026-05-08 08:41 375K
20260508T06Z_MSC_RDPS_UpwardShortwaveRadiationFlux_NTAtm_RLatLon0.09_PT011H.grib2 2026-05-08 08:41 564K
20260508T06Z_MSC_RDPS_VerticalVelocity_IsbL-0250_RLatLon0.09_PT011H.grib2 2026-05-08 08:41 569K
20260508T06Z_MSC_RDPS_VerticalVelocity_IsbL-0500_RLatLon0.09_PT011H.grib2 2026-05-08 08:41 525K
20260508T06Z_MSC_RDPS_VerticalVelocity_IsbL-0700_RLatLon0.09_PT011H.grib2 2026-05-08 08:41 597K
20260508T06Z_MSC_RDPS_VerticalVelocity_IsbL-0850_RLatLon0.09_PT011H.grib2 2026-05-08 08:41 712K
20260508T06Z_MSC_RDPS_VerticalWindShear_EtaL-6500_RLatLon0.09_PT011H.grib2 2026-05-08 08:41 1.2M
20260508T06Z_MSC_RDPS_WindChill_Sfc_RLatLon0.09_PT011H.grib2 2026-05-08 08:41 1.2M
20260508T06Z_MSC_RDPS_WindDir_AGL-10m_RLatLon0.09_PT011H.grib2 2026-05-08 08:41 1.0M
20260508T06Z_MSC_RDPS_WindDir_AGL-120m_RLatLon0.09_PT011H.grib2 2026-05-08 08:41 629K
20260508T06Z_MSC_RDPS_WindDir_AGL-40m_RLatLon0.09_PT011H.grib2 2026-05-08 08:41 651K
20260508T06Z_MSC_RDPS_WindDir_AGL-80m_RLatLon0.09_PT011H.grib2 2026-05-08 08:41 638K
20260508T06Z_MSC_RDPS_WindDir_IsbL-0001_RLatLon0.09_PT011H.grib2 2026-05-08 08:41 275K
20260508T06Z_MSC_RDPS_WindDir_IsbL-0005_RLatLon0.09_PT011H.grib2 2026-05-08 08:41 359K
20260508T06Z_MSC_RDPS_WindDir_IsbL-0010_RLatLon0.09_PT011H.grib2 2026-05-08 08:41 374K
20260508T06Z_MSC_RDPS_WindDir_IsbL-0020_RLatLon0.09_PT011H.grib2 2026-05-08 08:41 398K
20260508T06Z_MSC_RDPS_WindDir_IsbL-0030_RLatLon0.09_PT011H.grib2 2026-05-08 08:41 400K
20260508T06Z_MSC_RDPS_WindDir_IsbL-0050_RLatLon0.09_PT011H.grib2 2026-05-08 08:41 442K
20260508T06Z_MSC_RDPS_WindDir_IsbL-0100_RLatLon0.09_PT011H.grib2 2026-05-08 08:41 408K
20260508T06Z_MSC_RDPS_WindDir_IsbL-0150_RLatLon0.09_PT011H.grib2 2026-05-08 08:41 416K
20260508T06Z_MSC_RDPS_WindDir_IsbL-0175_RLatLon0.09_PT011H.grib2 2026-05-08 08:41 447K
20260508T06Z_MSC_RDPS_WindDir_IsbL-0200_RLatLon0.09_PT011H.grib2 2026-05-08 08:41 461K
20260508T06Z_MSC_RDPS_WindDir_IsbL-0225_RLatLon0.09_PT011H.grib2 2026-05-08 08:41 462K
20260508T06Z_MSC_RDPS_WindDir_IsbL-0250_RLatLon0.09_PT011H.grib2 2026-05-08 08:41 461K
20260508T06Z_MSC_RDPS_WindDir_IsbL-0275_RLatLon0.09_PT011H.grib2 2026-05-08 08:41 474K
20260508T06Z_MSC_RDPS_WindDir_IsbL-0300_RLatLon0.09_PT011H.grib2 2026-05-08 08:41 469K
20260508T06Z_MSC_RDPS_WindDir_IsbL-0350_RLatLon0.09_PT011H.grib2 2026-05-08 08:41 492K
20260508T06Z_MSC_RDPS_WindDir_IsbL-0400_RLatLon0.09_PT011H.grib2 2026-05-08 08:41 512K
20260508T06Z_MSC_RDPS_WindDir_IsbL-0450_RLatLon0.09_PT011H.grib2 2026-05-08 08:41 534K
20260508T06Z_MSC_RDPS_WindDir_IsbL-0500_RLatLon0.09_PT011H.grib2 2026-05-08 08:41 555K
20260508T06Z_MSC_RDPS_WindDir_IsbL-0550_RLatLon0.09_PT011H.grib2 2026-05-08 08:41 568K
20260508T06Z_MSC_RDPS_WindDir_IsbL-0600_RLatLon0.09_PT011H.grib2 2026-05-08 08:41 589K
20260508T06Z_MSC_RDPS_WindDir_IsbL-0650_RLatLon0.09_PT011H.grib2 2026-05-08 08:41 630K
20260508T06Z_MSC_RDPS_WindDir_IsbL-0700_RLatLon0.09_PT011H.grib2 2026-05-08 08:41 680K
20260508T06Z_MSC_RDPS_WindDir_IsbL-0750_RLatLon0.09_PT011H.grib2 2026-05-08 08:41 733K
20260508T06Z_MSC_RDPS_WindDir_IsbL-0800_RLatLon0.09_PT011H.grib2 2026-05-08 08:41 805K
20260508T06Z_MSC_RDPS_WindDir_IsbL-0850_RLatLon0.09_PT011H.grib2 2026-05-08 08:41 872K
20260508T06Z_MSC_RDPS_WindDir_IsbL-0875_RLatLon0.09_PT011H.grib2 2026-05-08 08:41 895K
20260508T06Z_MSC_RDPS_WindDir_IsbL-0900_RLatLon0.09_PT011H.grib2 2026-05-08 08:41 911K
20260508T06Z_MSC_RDPS_WindDir_IsbL-0925_RLatLon0.09_PT011H.grib2 2026-05-08 08:41 923K
20260508T06Z_MSC_RDPS_WindDir_IsbL-0950_RLatLon0.09_PT011H.grib2 2026-05-08 08:41 926K
20260508T06Z_MSC_RDPS_WindDir_IsbL-0970_RLatLon0.09_PT011H.grib2 2026-05-08 08:41 935K
20260508T06Z_MSC_RDPS_WindDir_IsbL-0985_RLatLon0.09_PT011H.grib2 2026-05-08 08:41 945K
20260508T06Z_MSC_RDPS_WindDir_IsbL-1000_RLatLon0.09_PT011H.grib2 2026-05-08 08:41 960K
20260508T06Z_MSC_RDPS_WindDir_IsbL-1015_RLatLon0.09_PT011H.grib2 2026-05-08 08:41 1.0M
20260508T06Z_MSC_RDPS_WindGust-Max_AGL-10m_RLatLon0.09_PT011H.grib2 2026-05-08 08:41 1.0M
20260508T06Z_MSC_RDPS_WindGust-Min_AGL-10m_RLatLon0.09_PT011H.grib2 2026-05-08 08:41 1.0M
20260508T06Z_MSC_RDPS_WindGust_AGL-10m_RLatLon0.09_PT011H.grib2 2026-05-08 08:41 1.0M
20260508T06Z_MSC_RDPS_WindSpeed_AGL-10m_RLatLon0.09_PT011H.grib2 2026-05-08 08:41 847K
20260508T06Z_MSC_RDPS_WindSpeed_AGL-120m_RLatLon0.09_PT011H.grib2 2026-05-08 08:41 540K
20260508T06Z_MSC_RDPS_WindSpeed_AGL-40m_RLatLon0.09_PT011H.grib2 2026-05-08 08:41 544K
20260508T06Z_MSC_RDPS_WindSpeed_AGL-80m_RLatLon0.09_PT011H.grib2 2026-05-08 08:41 541K
20260508T06Z_MSC_RDPS_WindSpeed_IsbL-0001_RLatLon0.09_PT011H.grib2 2026-05-08 08:41 249K
20260508T06Z_MSC_RDPS_WindSpeed_IsbL-0005_RLatLon0.09_PT011H.grib2 2026-05-08 08:41 290K
20260508T06Z_MSC_RDPS_WindSpeed_IsbL-0010_RLatLon0.09_PT011H.grib2 2026-05-08 08:41 387K
20260508T06Z_MSC_RDPS_WindSpeed_IsbL-0020_RLatLon0.09_PT011H.grib2 2026-05-08 08:41 313K
20260508T06Z_MSC_RDPS_WindSpeed_IsbL-0030_RLatLon0.09_PT011H.grib2 2026-05-08 08:41 313K
20260508T06Z_MSC_RDPS_WindSpeed_IsbL-0050_RLatLon0.09_PT011H.grib2 2026-05-08 08:41 342K
20260508T06Z_MSC_RDPS_WindSpeed_IsbL-0100_RLatLon0.09_PT011H.grib2 2026-05-08 08:41 427K
20260508T06Z_MSC_RDPS_WindSpeed_IsbL-0150_RLatLon0.09_PT011H.grib2 2026-05-08 08:41 393K
20260508T06Z_MSC_RDPS_WindSpeed_IsbL-0175_RLatLon0.09_PT011H.grib2 2026-05-08 08:41 417K
20260508T06Z_MSC_RDPS_WindSpeed_IsbL-0200_RLatLon0.09_PT011H.grib2 2026-05-08 08:41 434K
20260508T06Z_MSC_RDPS_WindSpeed_IsbL-0225_RLatLon0.09_PT011H.grib2 2026-05-08 08:41 440K
20260508T06Z_MSC_RDPS_WindSpeed_IsbL-0250_RLatLon0.09_PT011H.grib2 2026-05-08 08:41 441K
20260508T06Z_MSC_RDPS_WindSpeed_IsbL-0275_RLatLon0.09_PT011H.grib2 2026-05-08 08:41 458K
20260508T06Z_MSC_RDPS_WindSpeed_IsbL-0300_RLatLon0.09_PT011H.grib2 2026-05-08 08:41 455K
20260508T06Z_MSC_RDPS_WindSpeed_IsbL-0350_RLatLon0.09_PT011H.grib2 2026-05-08 08:41 464K
20260508T06Z_MSC_RDPS_WindSpeed_IsbL-0400_RLatLon0.09_PT011H.grib2 2026-05-08 08:41 450K
20260508T06Z_MSC_RDPS_WindSpeed_IsbL-0450_RLatLon0.09_PT011H.grib2 2026-05-08 08:41 451K
20260508T06Z_MSC_RDPS_WindSpeed_IsbL-0500_RLatLon0.09_PT011H.grib2 2026-05-08 08:41 571K
20260508T06Z_MSC_RDPS_WindSpeed_IsbL-0550_RLatLon0.09_PT011H.grib2 2026-05-08 08:41 575K
20260508T06Z_MSC_RDPS_WindSpeed_IsbL-0600_RLatLon0.09_PT011H.grib2 2026-05-08 08:41 631K
20260508T06Z_MSC_RDPS_WindSpeed_IsbL-0650_RLatLon0.09_PT011H.grib2 2026-05-08 08:41 655K
20260508T06Z_MSC_RDPS_WindSpeed_IsbL-0700_RLatLon0.09_PT011H.grib2 2026-05-08 08:41 685K
20260508T06Z_MSC_RDPS_WindSpeed_IsbL-0750_RLatLon0.09_PT011H.grib2 2026-05-08 08:41 720K
20260508T06Z_MSC_RDPS_WindSpeed_IsbL-0800_RLatLon0.09_PT011H.grib2 2026-05-08 08:41 774K
20260508T06Z_MSC_RDPS_WindSpeed_IsbL-0850_RLatLon0.09_PT011H.grib2 2026-05-08 08:41 831K
20260508T06Z_MSC_RDPS_WindSpeed_IsbL-0875_RLatLon0.09_PT011H.grib2 2026-05-08 08:41 848K
20260508T06Z_MSC_RDPS_WindSpeed_IsbL-0900_RLatLon0.09_PT011H.grib2 2026-05-08 08:41 861K
20260508T06Z_MSC_RDPS_WindSpeed_IsbL-0925_RLatLon0.09_PT011H.grib2 2026-05-08 08:41 869K
20260508T06Z_MSC_RDPS_WindSpeed_IsbL-0950_RLatLon0.09_PT011H.grib2 2026-05-08 08:41 868K
20260508T06Z_MSC_RDPS_WindSpeed_IsbL-0970_RLatLon0.09_PT011H.grib2 2026-05-08 08:41 866K
20260508T06Z_MSC_RDPS_WindSpeed_IsbL-0985_RLatLon0.09_PT011H.grib2 2026-05-08 08:41 858K
20260508T06Z_MSC_RDPS_WindSpeed_IsbL-1000_RLatLon0.09_PT011H.grib2 2026-05-08 08:41 856K
20260508T06Z_MSC_RDPS_WindSpeed_IsbL-1015_RLatLon0.09_PT011H.grib2 2026-05-08 08:41 848K
20260508T06Z_MSC_RDPS_WindU_AGL-10m_RLatLon0.09_PT011H.grib2 2026-05-08 08:41 440K
20260508T06Z_MSC_RDPS_WindU_AGL-120m_RLatLon0.09_PT011H.grib2 2026-05-08 08:41 422K
20260508T06Z_MSC_RDPS_WindU_AGL-40m_RLatLon0.09_PT011H.grib2 2026-05-08 08:41 425K
20260508T06Z_MSC_RDPS_WindU_AGL-80m_RLatLon0.09_PT011H.grib2 2026-05-08 08:41 423K
20260508T06Z_MSC_RDPS_WindU_IsbL-0001_RLatLon0.09_PT011H.grib2 2026-05-08 08:41 291K
20260508T06Z_MSC_RDPS_WindU_IsbL-0005_RLatLon0.09_PT011H.grib2 2026-05-08 08:41 281K
20260508T06Z_MSC_RDPS_WindU_IsbL-0010_RLatLon0.09_PT011H.grib2 2026-05-08 08:41 291K
20260508T06Z_MSC_RDPS_WindU_IsbL-0020_RLatLon0.09_PT011H.grib2 2026-05-08 08:41 345K
20260508T06Z_MSC_RDPS_WindU_IsbL-0030_RLatLon0.09_PT011H.grib2 2026-05-08 08:41 306K
20260508T06Z_MSC_RDPS_WindU_IsbL-0050_RLatLon0.09_PT011H.grib2 2026-05-08 08:41 371K
20260508T06Z_MSC_RDPS_WindU_IsbL-0100_RLatLon0.09_PT011H.grib2 2026-05-08 08:41 420K
20260508T06Z_MSC_RDPS_WindU_IsbL-0150_RLatLon0.09_PT011H.grib2 2026-05-08 08:41 389K
20260508T06Z_MSC_RDPS_WindU_IsbL-0175_RLatLon0.09_PT011H.grib2 2026-05-08 08:41 412K
20260508T06Z_MSC_RDPS_WindU_IsbL-0200_RLatLon0.09_PT011H.grib2 2026-05-08 08:41 330K
20260508T06Z_MSC_RDPS_WindU_IsbL-0225_RLatLon0.09_PT011H.grib2 2026-05-08 08:41 431K
20260508T06Z_MSC_RDPS_WindU_IsbL-0250_RLatLon0.09_PT011H.grib2 2026-05-08 08:41 430K
20260508T06Z_MSC_RDPS_WindU_IsbL-0275_RLatLon0.09_PT011H.grib2 2026-05-08 08:41 447K
20260508T06Z_MSC_RDPS_WindU_IsbL-0300_RLatLon0.09_PT011H.grib2 2026-05-08 08:41 343K
20260508T06Z_MSC_RDPS_WindU_IsbL-0350_RLatLon0.09_PT011H.grib2 2026-05-08 08:41 350K
20260508T06Z_MSC_RDPS_WindU_IsbL-0400_RLatLon0.09_PT011H.grib2 2026-05-08 08:41 454K
20260508T06Z_MSC_RDPS_WindU_IsbL-0450_RLatLon0.09_PT011H.grib2 2026-05-08 08:41 458K
20260508T06Z_MSC_RDPS_WindU_IsbL-0500_RLatLon0.09_PT011H.grib2 2026-05-08 08:41 461K
20260508T06Z_MSC_RDPS_WindU_IsbL-0550_RLatLon0.09_PT011H.grib2 2026-05-08 08:41 465K
20260508T06Z_MSC_RDPS_WindU_IsbL-0600_RLatLon0.09_PT011H.grib2 2026-05-08 08:41 459K
20260508T06Z_MSC_RDPS_WindU_IsbL-0650_RLatLon0.09_PT011H.grib2 2026-05-08 08:41 482K
20260508T06Z_MSC_RDPS_WindU_IsbL-0700_RLatLon0.09_PT011H.grib2 2026-05-08 08:41 509K
20260508T06Z_MSC_RDPS_WindU_IsbL-0750_RLatLon0.09_PT011H.grib2 2026-05-08 08:41 540K
20260508T06Z_MSC_RDPS_WindU_IsbL-0800_RLatLon0.09_PT011H.grib2 2026-05-08 08:41 586K
20260508T06Z_MSC_RDPS_WindU_IsbL-0850_RLatLon0.09_PT011H.grib2 2026-05-08 08:41 637K
20260508T06Z_MSC_RDPS_WindU_IsbL-0875_RLatLon0.09_PT011H.grib2 2026-05-08 08:41 652K
20260508T06Z_MSC_RDPS_WindU_IsbL-0900_RLatLon0.09_PT011H.grib2 2026-05-08 08:41 660K
20260508T06Z_MSC_RDPS_WindU_IsbL-0925_RLatLon0.09_PT011H.grib2 2026-05-08 08:41 665K
20260508T06Z_MSC_RDPS_WindU_IsbL-0950_RLatLon0.09_PT011H.grib2 2026-05-08 08:41 663K
20260508T06Z_MSC_RDPS_WindU_IsbL-0970_RLatLon0.09_PT011H.grib2 2026-05-08 08:41 662K
20260508T06Z_MSC_RDPS_WindU_IsbL-0985_RLatLon0.09_PT011H.grib2 2026-05-08 08:41 659K
20260508T06Z_MSC_RDPS_WindU_IsbL-1000_RLatLon0.09_PT011H.grib2 2026-05-08 08:41 658K
20260508T06Z_MSC_RDPS_WindU_IsbL-1015_RLatLon0.09_PT011H.grib2 2026-05-08 08:41 793K
20260508T06Z_MSC_RDPS_WindV_AGL-10m_RLatLon0.09_PT011H.grib2 2026-05-08 08:41 435K
20260508T06Z_MSC_RDPS_WindV_AGL-120m_RLatLon0.09_PT011H.grib2 2026-05-08 08:41 536K
20260508T06Z_MSC_RDPS_WindV_AGL-40m_RLatLon0.09_PT011H.grib2 2026-05-08 08:41 538K
20260508T06Z_MSC_RDPS_WindV_AGL-80m_RLatLon0.09_PT011H.grib2 2026-05-08 08:41 537K
20260508T06Z_MSC_RDPS_WindV_IsbL-0001_RLatLon0.09_PT011H.grib2 2026-05-08 08:41 243K
20260508T06Z_MSC_RDPS_WindV_IsbL-0005_RLatLon0.09_PT011H.grib2 2026-05-08 08:41 281K
20260508T06Z_MSC_RDPS_WindV_IsbL-0010_RLatLon0.09_PT011H.grib2 2026-05-08 08:41 292K
20260508T06Z_MSC_RDPS_WindV_IsbL-0020_RLatLon0.09_PT011H.grib2 2026-05-08 08:41 307K
20260508T06Z_MSC_RDPS_WindV_IsbL-0030_RLatLon0.09_PT011H.grib2 2026-05-08 08:41 307K
20260508T06Z_MSC_RDPS_WindV_IsbL-0050_RLatLon0.09_PT011H.grib2 2026-05-08 08:41 337K
20260508T06Z_MSC_RDPS_WindV_IsbL-0100_RLatLon0.09_PT011H.grib2 2026-05-08 08:41 418K
20260508T06Z_MSC_RDPS_WindV_IsbL-0150_RLatLon0.09_PT011H.grib2 2026-05-08 08:41 386K
20260508T06Z_MSC_RDPS_WindV_IsbL-0175_RLatLon0.09_PT011H.grib2 2026-05-08 08:41 409K
20260508T06Z_MSC_RDPS_WindV_IsbL-0200_RLatLon0.09_PT011H.grib2 2026-05-08 08:41 330K
20260508T06Z_MSC_RDPS_WindV_IsbL-0225_RLatLon0.09_PT011H.grib2 2026-05-08 08:41 360K
20260508T06Z_MSC_RDPS_WindV_IsbL-0250_RLatLon0.09_PT011H.grib2 2026-05-08 08:41 359K
20260508T06Z_MSC_RDPS_WindV_IsbL-0275_RLatLon0.09_PT011H.grib2 2026-05-08 08:41 370K
20260508T06Z_MSC_RDPS_WindV_IsbL-0300_RLatLon0.09_PT011H.grib2 2026-05-08 08:41 366K
20260508T06Z_MSC_RDPS_WindV_IsbL-0350_RLatLon0.09_PT011H.grib2 2026-05-08 08:41 348K
20260508T06Z_MSC_RDPS_WindV_IsbL-0400_RLatLon0.09_PT011H.grib2 2026-05-08 08:41 352K
20260508T06Z_MSC_RDPS_WindV_IsbL-0450_RLatLon0.09_PT011H.grib2 2026-05-08 08:41 353K
20260508T06Z_MSC_RDPS_WindV_IsbL-0500_RLatLon0.09_PT011H.grib2 2026-05-08 08:41 458K
20260508T06Z_MSC_RDPS_WindV_IsbL-0550_RLatLon0.09_PT011H.grib2 2026-05-08 08:41 461K
20260508T06Z_MSC_RDPS_WindV_IsbL-0600_RLatLon0.09_PT011H.grib2 2026-05-08 08:41 472K
20260508T06Z_MSC_RDPS_WindV_IsbL-0650_RLatLon0.09_PT011H.grib2 2026-05-08 08:41 492K
20260508T06Z_MSC_RDPS_WindV_IsbL-0700_RLatLon0.09_PT011H.grib2 2026-05-08 08:41 517K
20260508T06Z_MSC_RDPS_WindV_IsbL-0750_RLatLon0.09_PT011H.grib2 2026-05-08 08:41 534K
20260508T06Z_MSC_RDPS_WindV_IsbL-0800_RLatLon0.09_PT011H.grib2 2026-05-08 08:41 581K
20260508T06Z_MSC_RDPS_WindV_IsbL-0850_RLatLon0.09_PT011H.grib2 2026-05-08 08:41 631K
20260508T06Z_MSC_RDPS_WindV_IsbL-0875_RLatLon0.09_PT011H.grib2 2026-05-08 08:41 647K
20260508T06Z_MSC_RDPS_WindV_IsbL-0900_RLatLon0.09_PT011H.grib2 2026-05-08 08:41 658K
20260508T06Z_MSC_RDPS_WindV_IsbL-0925_RLatLon0.09_PT011H.grib2 2026-05-08 08:41 664K
20260508T06Z_MSC_RDPS_WindV_IsbL-0950_RLatLon0.09_PT011H.grib2 2026-05-08 08:41 660K
20260508T06Z_MSC_RDPS_WindV_IsbL-0970_RLatLon0.09_PT011H.grib2 2026-05-08 08:41 657K
20260508T06Z_MSC_RDPS_WindV_IsbL-0985_RLatLon0.09_PT011H.grib2 2026-05-08 08:41 794K
20260508T06Z_MSC_RDPS_WindV_IsbL-1000_RLatLon0.09_PT011H.grib2 2026-05-08 08:41 791K
20260508T06Z_MSC_RDPS_WindV_IsbL-1015_RLatLon0.09_PT011H.grib2 2026-05-08 08:41 832K